Year,Month,Day,Hour,Minute,Value (Times are PST for barometer in hPa)
2022,12,26,00,00,1001.83
2022,12,26,00,01,1001.85
2022,12,26,00,02,1001.76
2022,12,26,00,03,1001.76
2022,12,26,00,04,1001.76
2022,12,26,00,05,1001.73
2022,12,26,00,06,1001.76
2022,12,26,00,07,1001.73
2022,12,26,00,08,1001.76
2022,12,26,00,09,1001.80
2022,12,26,00,10,1001.80
2022,12,26,00,11,1001.73
2022,12,26,00,12,1001.65
2022,12,26,00,13,1001.52
2022,12,26,00,14,1001.46
2022,12,26,00,15,1001.46
2022,12,26,00,16,1001.42
2022,12,26,00,17,1001.42
2022,12,26,00,18,1001.36
2022,12,26,00,19,1001.25
2022,12,26,00,20,1001.22
2022,12,26,00,21,1001.19
2022,12,26,00,22,1001.19
2022,12,26,00,23,1001.12
2022,12,26,00,24,1001.12
2022,12,26,00,25,1001.12
2022,12,26,00,26,1001.08
2022,12,26,00,27,1001.15
2022,12,26,00,28,1001.15
2022,12,26,00,29,1001.12
2022,12,26,00,30,1001.12
2022,12,26,00,31,1001.05
2022,12,26,00,32,1001.05
2022,12,26,00,33,1001.02
2022,12,26,00,34,1001.02
2022,12,26,00,35,1001.02
2022,12,26,00,36,1001.08
2022,12,26,00,37,1001.15
2022,12,26,00,38,1001.12
2022,12,26,00,39,1001.12
2022,12,26,00,40,1001.12
2022,12,26,00,41,1001.15
2022,12,26,00,42,1001.15
2022,12,26,00,43,1001.22
2022,12,26,00,44,1001.22
2022,12,26,00,45,1001.19
2022,12,26,00,46,1001.11
2022,12,26,00,47,1000.97
2022,12,26,00,48,1000.84
2022,12,26,00,49,1000.64
2022,12,26,00,50,1000.61
2022,12,26,00,51,1000.54
2022,12,26,00,52,1000.44
2022,12,26,00,53,1000.33
2022,12,26,00,54,1000.14
2022,12,26,00,55,1000.07
2022,12,26,00,56,1000.00
2022,12,26,00,57,999.92
2022,12,26,00,58,999.83
2022,12,26,00,59,999.87
2022,12,26,01,00,999.87
2022,12,26,01,01,999.87
2022,12,26,01,02,999.87
2022,12,26,01,03,999.80
2022,12,26,01,04,999.80
2022,12,26,01,05,999.86
2022,12,26,01,06,999.73
2022,12,26,01,07,999.70
2022,12,26,01,08,999.70
2022,12,26,01,09,999.66
2022,12,26,01,10,999.59
2022,12,26,01,11,999.53
2022,12,26,01,12,999.49
2022,12,26,01,13,999.39
2022,12,26,01,14,999.39
2022,12,26,01,15,999.38
2022,12,26,01,16,999.26
2022,12,26,01,17,999.15
2022,12,26,01,18,999.09
2022,12,26,01,19,999.16
2022,12,26,01,20,999.26
2022,12,26,01,21,999.19
2022,12,26,01,22,999.12
2022,12,26,01,23,999.12
2022,12,26,01,24,999.12
2022,12,26,01,25,999.15
2022,12,26,01,26,999.12
2022,12,26,01,27,998.95
2022,12,26,01,28,998.85
2022,12,26,01,29,998.82
2022,12,26,01,30,998.88
2022,12,26,01,31,998.92
2022,12,26,01,32,998.99
2022,12,26,01,33,998.88
2022,12,26,01,34,998.74
2022,12,26,01,35,998.54
2022,12,26,01,36,998.50
2022,12,26,01,37,998.38
2022,12,26,01,38,998.41
2022,12,26,01,39,998.51
2022,12,26,01,40,998.54
2022,12,26,01,41,998.54
2022,12,26,01,42,998.51
2022,12,26,01,43,998.48
2022,12,26,01,44,998.44
2022,12,26,01,45,998.38
2022,12,26,01,46,998.30
2022,12,26,01,47,998.17
2022,12,26,01,48,998.04
2022,12,26,01,49,998.00
2022,12,26,01,50,998.10
2022,12,26,01,51,998.07
2022,12,26,01,52,998.07
2022,12,26,01,53,998.07
2022,12,26,01,54,998.00
2022,12,26,01,55,997.94
2022,12,26,01,56,997.83
2022,12,26,01,57,997.87
2022,12,26,01,58,997.94
2022,12,26,01,59,997.94
2022,12,26,02,00,997.87
2022,12,26,02,01,997.77
2022,12,26,02,02,997.80
2022,12,26,02,03,997.87
2022,12,26,02,04,997.87
2022,12,26,02,05,997.87
2022,12,26,02,06,997.94
2022,12,26,02,07,997.97
2022,12,26,02,08,997.87
2022,12,26,02,09,997.80
2022,12,26,02,10,997.77
2022,12,26,02,11,997.73
2022,12,26,02,12,997.73
2022,12,26,02,13,997.80
2022,12,26,02,14,997.90
2022,12,26,02,15,997.87
2022,12,26,02,16,997.83
2022,12,26,02,17,997.80
2022,12,26,02,18,997.83
2022,12,26,02,19,997.80
2022,12,26,02,20,997.87
2022,12,26,02,21,997.83
2022,12,26,02,22,997.87
2022,12,26,02,23,997.87
2022,12,26,02,24,997.80
2022,12,26,02,25,997.73
2022,12,26,02,26,997.73
2022,12,26,02,27,997.66
2022,12,26,02,28,997.60
2022,12,26,02,29,997.66
2022,12,26,02,30,997.63
2022,12,26,02,31,997.66
2022,12,26,02,32,997.70
2022,12,26,02,33,997.66
2022,12,26,02,34,997.60
2022,12,26,02,35,997.70
2022,12,26,02,36,997.70
2022,12,26,02,37,997.73
2022,12,26,02,38,997.66
2022,12,26,02,39,997.53
2022,12,26,02,40,997.56
2022,12,26,02,41,997.60
2022,12,26,02,42,997.63
2022,12,26,02,43,997.50
2022,12,26,02,44,997.43
2022,12,26,02,45,997.36
2022,12,26,02,46,997.47
2022,12,26,02,47,997.56
2022,12,26,02,48,997.53
2022,12,26,02,49,997.36
2022,12,26,02,50,997.16
2022,12,26,02,51,997.09
2022,12,26,02,52,997.12
2022,12,26,02,53,997.22
2022,12,26,02,54,997.22
2022,12,26,02,55,997.16
2022,12,26,02,56,997.02
2022,12,26,02,57,996.99
2022,12,26,02,58,996.84
2022,12,26,02,59,996.68
2022,12,26,03,00,996.68
2022,12,26,03,01,996.72
2022,12,26,03,02,996.68
2022,12,26,03,03,996.61
2022,12,26,03,04,996.55
2022,12,26,03,05,996.51
2022,12,26,03,06,996.34
2022,12,26,03,07,996.14
2022,12,26,03,08,996.07
2022,12,26,03,09,996.02
2022,12,26,03,10,996.32
2022,12,26,03,11,996.61
2022,12,26,03,12,996.68
2022,12,26,03,13,996.69
2022,12,26,03,14,996.82
2022,12,26,03,15,997.03
2022,12,26,03,16,997.12
2022,12,26,03,17,997.12
2022,12,26,03,18,997.19
2022,12,26,03,19,997.26
2022,12,26,03,20,997.19
2022,12,26,03,21,997.08
2022,12,26,03,22,996.92
2022,12,26,03,23,996.75
2022,12,26,03,24,996.72
2022,12,26,03,25,996.72
2022,12,26,03,26,996.75
2022,12,26,03,27,996.77
2022,12,26,03,28,996.65
2022,12,26,03,29,996.55
2022,12,26,03,30,996.48
2022,12,26,03,31,996.48
2022,12,26,03,32,996.41
2022,12,26,03,33,996.45
2022,12,26,03,34,996.44
2022,12,26,03,35,996.30
2022,12,26,03,36,996.21
2022,12,26,03,37,996.07
2022,12,26,03,38,996.04
2022,12,26,03,39,996.04
2022,12,26,03,40,996.07
2022,12,26,03,41,996.22
2022,12,26,03,42,996.34
2022,12,26,03,43,996.34
2022,12,26,03,44,996.38
2022,12,26,03,45,996.27
2022,12,26,03,46,996.11
2022,12,26,03,47,996.08
2022,12,26,03,48,996.21
2022,12,26,03,49,996.28
2022,12,26,03,50,996.21
2022,12,26,03,51,996.14
2022,12,26,03,52,996.00
2022,12,26,03,53,995.84
2022,12,26,03,54,995.80
2022,12,26,03,55,995.77
2022,12,26,03,56,995.79
2022,12,26,03,57,995.70
2022,12,26,03,58,995.67
2022,12,26,03,59,995.77
2022,12,26,04,00,995.73
2022,12,26,04,01,995.67
2022,12,26,04,02,995.66
2022,12,26,04,03,995.53
2022,12,26,04,04,995.46
2022,12,26,04,05,995.46
2022,12,26,04,06,995.50
2022,12,26,04,07,995.50
2022,12,26,04,08,995.40
2022,12,26,04,09,995.36
2022,12,26,04,10,995.36
2022,12,26,04,11,995.40
2022,12,26,04,12,995.39
2022,12,26,04,13,995.26
2022,12,26,04,14,995.26
2022,12,26,04,15,995.12
2022,12,26,04,16,995.06
2022,12,26,04,17,995.02
2022,12,26,04,18,995.09
2022,12,26,04,19,995.09
2022,12,26,04,20,995.01
2022,12,26,04,21,994.89
2022,12,26,04,22,994.85
2022,12,26,04,23,994.85
2022,12,26,04,24,994.85
2022,12,26,04,25,994.79
2022,12,26,04,26,994.79
2022,12,26,04,27,994.81
2022,12,26,04,28,994.67
2022,12,26,04,29,994.45
2022,12,26,04,30,994.34
2022,12,26,04,31,994.21
2022,12,26,04,32,994.14
2022,12,26,04,33,994.19
2022,12,26,04,34,994.35
2022,12,26,04,35,994.45
2022,12,26,04,36,994.35
2022,12,26,04,37,994.31
2022,12,26,04,38,994.31
2022,12,26,04,39,994.28
2022,12,26,04,40,994.35
2022,12,26,04,41,994.41
2022,12,26,04,42,994.45
2022,12,26,04,43,994.52
2022,12,26,04,44,994.52
2022,12,26,04,45,994.48
2022,12,26,04,46,994.45
2022,12,26,04,47,994.48
2022,12,26,04,48,994.48
2022,12,26,04,49,994.45
2022,12,26,04,50,994.41
2022,12,26,04,51,994.31
2022,12,26,04,52,994.24
2022,12,26,04,53,994.18
2022,12,26,04,54,994.14
2022,12,26,04,55,994.11
2022,12,26,04,56,994.21
2022,12,26,04,57,994.21
2022,12,26,04,58,994.21
2022,12,26,04,59,994.21
2022,12,26,05,00,994.21
2022,12,26,05,01,994.18
2022,12,26,05,02,994.24
2022,12,26,05,03,994.28
2022,12,26,05,04,994.21
2022,12,26,05,05,994.21
2022,12,26,05,06,994.24
2022,12,26,05,07,994.14
2022,12,26,05,08,994.18
2022,12,26,05,09,994.24
2022,12,26,05,10,994.21
2022,12,26,05,11,994.24
2022,12,26,05,12,994.24
2022,12,26,05,13,994.24
2022,12,26,05,14,994.18
2022,12,26,05,15,994.18
2022,12,26,05,16,994.18
2022,12,26,05,17,994.18
2022,12,26,05,18,994.14
2022,12,26,05,19,994.14
2022,12,26,05,20,994.24
2022,12,26,05,21,994.28
2022,12,26,05,22,994.35
2022,12,26,05,23,994.31
2022,12,26,05,24,994.31
2022,12,26,05,25,994.35
2022,12,26,05,26,994.24
2022,12,26,05,27,994.24
2022,12,26,05,28,994.24
2022,12,26,05,29,994.35
2022,12,26,05,30,994.38
2022,12,26,05,31,994.38
2022,12,26,05,32,994.41
2022,12,26,05,33,994.41
2022,12,26,05,34,994.48
2022,12,26,05,35,994.52
2022,12,26,05,36,994.55
2022,12,26,05,37,994.62
2022,12,26,05,38,994.65
2022,12,26,05,39,994.65
2022,12,26,05,40,994.72
2022,12,26,05,41,994.68
2022,12,26,05,42,994.72
2022,12,26,05,43,994.79
2022,12,26,05,44,994.89
2022,12,26,05,45,994.92
2022,12,26,05,46,995.09
2022,12,26,05,47,995.19
2022,12,26,05,48,995.26
2022,12,26,05,49,995.23
2022,12,26,05,50,995.02
2022,12,26,05,51,994.92
2022,12,26,05,52,994.95
2022,12,26,05,53,994.62
2022,12,26,05,54,994.66
2022,12,26,05,55,994.89
2022,12,26,05,56,994.92
2022,12,26,05,57,994.99
2022,12,26,05,58,995.09
2022,12,26,05,59,995.18
2022,12,26,06,00,995.09
2022,12,26,06,01,995.09
2022,12,26,06,02,995.16
2022,12,26,06,03,995.26
2022,12,26,06,04,995.29
2022,12,26,06,05,995.29
2022,12,26,06,06,995.40
2022,12,26,06,07,995.40
2022,12,26,06,08,995.23
2022,12,26,06,09,995.26
2022,12,26,06,10,995.33
2022,12,26,06,11,995.29
2022,12,26,06,12,995.33
2022,12,26,06,13,995.53
2022,12,26,06,14,995.62
2022,12,26,06,15,995.46
2022,12,26,06,16,995.46
2022,12,26,06,17,995.49
2022,12,26,06,18,995.41
2022,12,26,06,19,995.53
2022,12,26,06,20,995.63
2022,12,26,06,21,995.60
2022,12,26,06,22,995.60
2022,12,26,06,23,995.63
2022,12,26,06,24,995.64
2022,12,26,06,25,995.73
2022,12,26,06,26,995.77
2022,12,26,06,27,995.80
2022,12,26,06,28,995.90
2022,12,26,06,29,995.87
2022,12,26,06,30,995.67
2022,12,26,06,31,995.74
2022,12,26,06,32,995.87
2022,12,26,06,33,995.84
2022,12,26,06,34,995.87
2022,12,26,06,35,995.94
2022,12,26,06,36,995.76
2022,12,26,06,37,995.60
2022,12,26,06,38,995.64
2022,12,26,06,39,995.79
2022,12,26,06,40,995.63
2022,12,26,06,41,995.63
2022,12,26,06,42,995.63
2022,12,26,06,43,995.60
2022,12,26,06,44,995.50
2022,12,26,06,45,995.63
2022,12,26,06,46,995.56
2022,12,26,06,47,995.56
2022,12,26,06,48,995.53
2022,12,26,06,49,995.63
2022,12,26,06,50,995.77
2022,12,26,06,51,995.77
2022,12,26,06,52,995.73
2022,12,26,06,53,995.80
2022,12,26,06,54,995.73
2022,12,26,06,55,995.87
2022,12,26,06,56,995.84
2022,12,26,06,57,995.90
2022,12,26,06,58,995.87
2022,12,26,06,59,995.94
2022,12,26,07,00,995.94
2022,12,26,07,01,995.90
2022,12,26,07,02,996.04
2022,12,26,07,03,995.97
2022,12,26,07,04,996.01
2022,12,26,07,05,996.07
2022,12,26,07,06,996.11
2022,12,26,07,07,996.11
2022,12,26,07,08,996.21
2022,12,26,07,09,996.17
2022,12,26,07,10,996.21
2022,12,26,07,11,996.28
2022,12,26,07,12,996.24
2022,12,26,07,13,996.28
2022,12,26,07,14,996.41
2022,12,26,07,15,996.41
2022,12,26,07,16,996.28
2022,12,26,07,17,996.39
2022,12,26,07,18,996.51
2022,12,26,07,19,996.45
2022,12,26,07,20,996.31
2022,12,26,07,21,996.38
2022,12,26,07,22,996.39
2022,12,26,07,23,996.48
2022,12,26,07,24,996.51
2022,12,26,07,25,996.51
2022,12,26,07,26,996.45
2022,12,26,07,27,996.45
2022,12,26,07,28,996.51
2022,12,26,07,29,996.61
2022,12,26,07,30,996.61
2022,12,26,07,31,996.69
2022,12,26,07,32,996.82
2022,12,26,07,33,996.85
2022,12,26,07,34,996.85
2022,12,26,07,35,997.02
2022,12,26,07,36,997.05
2022,12,26,07,37,997.02
2022,12,26,07,38,997.04
2022,12,26,07,39,996.92
2022,12,26,07,40,997.22
2022,12,26,07,41,997.12
2022,12,26,07,42,997.16
2022,12,26,07,43,997.10
2022,12,26,07,44,997.39
2022,12,26,07,45,997.29
2022,12,26,07,46,997.19
2022,12,26,07,47,997.26
2022,12,26,07,48,997.36
2022,12,26,07,49,997.39
2022,12,26,07,50,997.40
2022,12,26,07,51,997.53
2022,12,26,07,52,997.53
2022,12,26,07,53,997.70
2022,12,26,07,54,997.63
2022,12,26,07,55,997.66
2022,12,26,07,56,997.56
2022,12,26,07,57,997.63
2022,12,26,07,58,997.53
2022,12,26,07,59,997.66
2022,12,26,08,00,997.63
2022,12,26,08,01,997.63
2022,12,26,08,02,997.66
2022,12,26,08,03,997.66
2022,12,26,08,04,997.66
2022,12,26,08,05,997.78
2022,12,26,08,06,997.90
2022,12,26,08,07,997.70
2022,12,26,08,08,997.80
2022,12,26,08,09,997.77
2022,12,26,08,10,997.83
2022,12,26,08,11,997.77
2022,12,26,08,12,997.87
2022,12,26,08,13,997.80
2022,12,26,08,14,997.80
2022,12,26,08,15,997.87
2022,12,26,08,16,997.83
2022,12,26,08,17,997.87
2022,12,26,08,18,997.87
2022,12,26,08,19,997.83
2022,12,26,08,20,997.80
2022,12,26,08,21,997.83
2022,12,26,08,22,997.83
2022,12,26,08,23,997.83
2022,12,26,08,24,997.86
2022,12,26,08,25,997.66
2022,12,26,08,26,997.66
2022,12,26,08,27,997.66
2022,12,26,08,28,997.73
2022,12,26,08,29,997.73
2022,12,26,08,30,997.79
2022,12,26,08,31,997.63
2022,12,26,08,32,997.65
2022,12,26,08,33,997.53
2022,12,26,08,34,997.53
2022,12,26,08,35,997.46
2022,12,26,08,36,997.53
2022,12,26,08,37,997.56
2022,12,26,08,38,997.50
2022,12,26,08,39,997.53
2022,12,26,08,40,997.53
2022,12,26,08,41,997.53
2022,12,26,08,42,997.53
2022,12,26,08,43,997.55
2022,12,26,08,44,997.43
2022,12,26,08,45,997.46
2022,12,26,08,46,997.53
2022,12,26,08,47,997.46
2022,12,26,08,48,997.60
2022,12,26,08,49,997.56
2022,12,26,08,50,997.56
2022,12,26,08,51,997.50
2022,12,26,08,52,997.46
2022,12,26,08,53,997.46
2022,12,26,08,54,997.46
2022,12,26,08,55,997.43
2022,12,26,08,56,997.43
2022,12,26,08,57,997.39
2022,12,26,08,58,997.39
2022,12,26,08,59,997.36
2022,12,26,09,00,997.39
2022,12,26,09,01,997.33
2022,12,26,09,02,997.43
2022,12,26,09,03,997.29
2022,12,26,09,04,997.29
2022,12,26,09,05,997.29
2022,12,26,09,06,997.36
2022,12,26,09,07,997.29
2022,12,26,09,08,997.26
2022,12,26,09,09,997.29
2022,12,26,09,10,997.26
2022,12,26,09,11,997.36
2022,12,26,09,12,997.19
2022,12,26,09,13,997.22
2022,12,26,09,14,997.19
2022,12,26,09,15,997.05
2022,12,26,09,16,997.16
2022,12,26,09,17,997.19
2022,12,26,09,18,997.12
2022,12,26,09,19,997.05
2022,12,26,09,20,997.09
2022,12,26,09,21,996.95
2022,12,26,09,22,997.15
2022,12,26,09,23,997.02
2022,12,26,09,24,996.92
2022,12,26,09,25,997.05
2022,12,26,09,26,997.02
2022,12,26,09,27,996.85
2022,12,26,09,28,996.92
2022,12,26,09,29,996.85
2022,12,26,09,30,996.78
2022,12,26,09,31,996.89
2022,12,26,09,32,996.94
2022,12,26,09,33,996.82
2022,12,26,09,34,996.98
2022,12,26,09,35,996.78
2022,12,26,09,36,996.78
2022,12,26,09,37,996.82
2022,12,26,09,38,996.95
2022,12,26,09,39,996.73
2022,12,26,09,40,996.89
2022,12,26,09,41,996.75
2022,12,26,09,42,996.98
2022,12,26,09,43,996.78
2022,12,26,09,44,996.82
2022,12,26,09,45,996.89
2022,12,26,09,46,996.85
2022,12,26,09,47,996.78
2022,12,26,09,48,996.85
2022,12,26,09,49,996.89
2022,12,26,09,50,996.99
2022,12,26,09,51,996.99
2022,12,26,09,52,996.89
2022,12,26,09,53,996.99
2022,12,26,09,54,997.02
2022,12,26,09,55,996.92
2022,12,26,09,56,997.02
2022,12,26,09,57,997.02
2022,12,26,09,58,997.16
2022,12,26,09,59,997.16
2022,12,26,10,00,997.16
2022,12,26,10,01,997.22
2022,12,26,10,02,997.26
2022,12,26,10,03,997.20
2022,12,26,10,04,997.39
2022,12,26,10,05,997.26
2022,12,26,10,06,997.43
2022,12,26,10,07,997.53
2022,12,26,10,08,997.53
2022,12,26,10,09,997.73
2022,12,26,10,10,997.61
2022,12,26,10,11,997.87
2022,12,26,10,12,997.80
2022,12,26,10,13,997.87
2022,12,26,10,14,997.87
2022,12,26,10,15,998.14
2022,12,26,10,16,998.04
2022,12,26,10,17,998.17
2022,12,26,10,18,998.24
2022,12,26,10,19,998.27
2022,12,26,10,20,998.34
2022,12,26,10,21,998.44
2022,12,26,10,22,998.44
2022,12,26,10,23,998.54
2022,12,26,10,24,998.65
2022,12,26,10,25,998.75
2022,12,26,10,26,998.85
2022,12,26,10,27,998.93
2022,12,26,10,28,999.05
2022,12,26,10,29,999.09
2022,12,26,10,30,999.12
2022,12,26,10,31,999.02
2022,12,26,10,32,999.26
2022,12,26,10,33,999.22
2022,12,26,10,34,999.45
2022,12,26,10,35,999.29
2022,12,26,10,36,999.29
2022,12,26,10,37,999.43
2022,12,26,10,38,999.43
2022,12,26,10,39,999.43
2022,12,26,10,40,999.37
2022,12,26,10,41,999.63
2022,12,26,10,42,999.69
2022,12,26,10,43,999.53
2022,12,26,10,44,999.49
2022,12,26,10,45,999.70
2022,12,26,10,46,999.39
2022,12,26,10,47,999.53
2022,12,26,10,48,999.54
2022,12,26,10,49,999.66
2022,12,26,10,50,999.70
2022,12,26,10,51,999.70
2022,12,26,10,52,999.70
2022,12,26,10,53,999.70
2022,12,26,10,54,999.66
2022,12,26,10,55,999.70
2022,12,26,10,56,999.66
2022,12,26,10,57,999.73
2022,12,26,10,58,999.70
2022,12,26,10,59,999.80
2022,12,26,11,00,999.73
2022,12,26,11,01,999.73
2022,12,26,11,02,999.76
2022,12,26,11,03,999.73
2022,12,26,11,04,999.73
2022,12,26,11,05,999.73
2022,12,26,11,06,999.80
2022,12,26,11,07,999.80
2022,12,26,11,08,999.73
2022,12,26,11,09,999.80
2022,12,26,11,10,999.80
2022,12,26,11,11,999.73
2022,12,26,11,12,999.76
2022,12,26,11,13,999.80
2022,12,26,11,14,999.83
2022,12,26,11,15,999.80
2022,12,26,11,16,999.80
2022,12,26,11,17,999.80
2022,12,26,11,18,999.84
2022,12,26,11,19,999.93
2022,12,26,11,20,999.90
2022,12,26,11,21,999.84
2022,12,26,11,22,999.93
2022,12,26,11,23,999.93
2022,12,26,11,24,999.93
2022,12,26,11,25,999.87
2022,12,26,11,26,999.93
2022,12,26,11,27,999.93
2022,12,26,11,28,999.97
2022,12,26,11,29,999.93
2022,12,26,11,30,999.97
2022,12,26,11,31,999.97
2022,12,26,11,32,1000.00
2022,12,26,11,33,1000.03
2022,12,26,11,34,1000.03
2022,12,26,11,35,1000.03
2022,12,26,11,36,1000.00
2022,12,26,11,37,1000.07
2022,12,26,11,38,1000.00
2022,12,26,11,39,1000.07
2022,12,26,11,40,1000.07
2022,12,26,11,41,1000.07
2022,12,26,11,42,1000.14
2022,12,26,11,43,1000.07
2022,12,26,11,44,1000.10
2022,12,26,11,45,1000.14
2022,12,26,11,46,1000.17
2022,12,26,11,47,1000.17
2022,12,26,11,48,1000.20
2022,12,26,11,49,1000.14
2022,12,26,11,50,1000.10
2022,12,26,11,51,1000.17
2022,12,26,11,52,1000.14
2022,12,26,11,53,1000.17
2022,12,26,11,54,1000.14
2022,12,26,11,55,1000.14
2022,12,26,11,56,1000.03
2022,12,26,11,57,1000.07
2022,12,26,11,58,1000.03
2022,12,26,11,59,1000.07
2022,12,26,12,00,1000.10
2022,12,26,12,01,1000.00
2022,12,26,12,02,1000.03
2022,12,26,12,03,1000.03
2022,12,26,12,04,999.90
2022,12,26,12,05,999.83
2022,12,26,12,06,999.82
2022,12,26,12,07,999.70
2022,12,26,12,08,999.70
2022,12,26,12,09,999.70
2022,12,26,12,10,999.63
2022,12,26,12,11,999.56
2022,12,26,12,12,999.56
2022,12,26,12,13,999.49
2022,12,26,12,14,999.43
2022,12,26,12,15,999.46
2022,12,26,12,16,999.46
2022,12,26,12,17,999.39
2022,12,26,12,18,999.43
2022,12,26,12,19,999.43
2022,12,26,12,20,999.49
2022,12,26,12,21,999.49
2022,12,26,12,22,999.46
2022,12,26,12,23,999.53
2022,12,26,12,24,999.53
2022,12,26,12,25,999.56
2022,12,26,12,26,999.53
2022,12,26,12,27,999.53
2022,12,26,12,28,999.49
2022,12,26,12,29,999.53
2022,12,26,12,30,999.43
2022,12,26,12,31,999.49
2022,12,26,12,32,999.53
2022,12,26,12,33,999.49
2022,12,26,12,34,999.46
2022,12,26,12,35,999.46
2022,12,26,12,36,999.46
2022,12,26,12,37,999.53
2022,12,26,12,38,999.49
2022,12,26,12,39,999.43
2022,12,26,12,40,999.46
2022,12,26,12,41,999.43
2022,12,26,12,42,999.43
2022,12,26,12,43,999.39
2022,12,26,12,44,999.43
2022,12,26,12,45,999.46
2022,12,26,12,46,999.43
2022,12,26,12,47,999.43
2022,12,26,12,48,999.36
2022,12,26,12,49,999.32
2022,12,26,12,50,999.32
2022,12,26,12,51,999.29
2022,12,26,12,52,999.26
2022,12,26,12,53,999.15
2022,12,26,12,54,999.19
2022,12,26,12,55,999.15
2022,12,26,12,56,999.12
2022,12,26,12,57,999.05
2022,12,26,12,58,999.02
2022,12,26,12,59,999.02
2022,12,26,13,00,998.95
2022,12,26,13,01,998.92
2022,12,26,13,02,998.78
2022,12,26,13,03,998.78
2022,12,26,13,04,998.75
2022,12,26,13,05,998.71
2022,12,26,13,06,998.71
2022,12,26,13,07,998.75
2022,12,26,13,08,998.78
2022,12,26,13,09,998.75
2022,12,26,13,10,998.71
2022,12,26,13,11,998.71
2022,12,26,13,12,998.71
2022,12,26,13,13,998.68
2022,12,26,13,14,998.65
2022,12,26,13,15,998.65
2022,12,26,13,16,998.61
2022,12,26,13,17,998.54
2022,12,26,13,18,998.48
2022,12,26,13,19,998.48
2022,12,26,13,20,998.44
2022,12,26,13,21,998.38
2022,12,26,13,22,998.34
2022,12,26,13,23,998.31
2022,12,26,13,24,998.24
2022,12,26,13,25,998.21
2022,12,26,13,26,998.17
2022,12,26,13,27,998.14
2022,12,26,13,28,998.17
2022,12,26,13,29,998.10
2022,12,26,13,30,998.07
2022,12,26,13,31,998.04
2022,12,26,13,32,998.00
2022,12,26,13,33,997.94
2022,12,26,13,34,997.94
2022,12,26,13,35,997.90
2022,12,26,13,36,997.87
2022,12,26,13,37,997.87
2022,12,26,13,38,997.83
2022,12,26,13,39,997.80
2022,12,26,13,40,997.80
2022,12,26,13,41,997.87
2022,12,26,13,42,997.90
2022,12,26,13,43,997.90
2022,12,26,13,44,997.90
2022,12,26,13,45,997.87
2022,12,26,13,46,997.87
2022,12,26,13,47,997.83
2022,12,26,13,48,997.83
2022,12,26,13,49,997.77
2022,12,26,13,50,997.73
2022,12,26,13,51,997.77
2022,12,26,13,52,997.73
2022,12,26,13,53,997.73
2022,12,26,13,54,997.73
2022,12,26,13,55,997.70
2022,12,26,13,56,997.70
2022,12,26,13,57,997.66
2022,12,26,13,58,997.70
2022,12,26,13,59,997.73
2022,12,26,14,00,997.77
2022,12,26,14,01,997.80
2022,12,26,14,02,997.87
2022,12,26,14,03,997.94
2022,12,26,14,04,997.94
2022,12,26,14,05,997.97
2022,12,26,14,06,997.94
2022,12,26,14,07,997.94
2022,12,26,14,08,997.97
2022,12,26,14,09,997.97
2022,12,26,14,10,997.97
2022,12,26,14,11,998.00
2022,12,26,14,12,998.07
2022,12,26,14,13,998.07
2022,12,26,14,14,998.07
2022,12,26,14,15,998.10
2022,12,26,14,16,998.14
2022,12,26,14,17,998.14
2022,12,26,14,18,998.14
2022,12,26,14,19,998.21
2022,12,26,14,20,998.14
2022,12,26,14,21,998.14
2022,12,26,14,22,998.07
2022,12,26,14,23,998.10
2022,12,26,14,24,998.07
2022,12,26,14,25,998.10
2022,12,26,14,26,998.10
2022,12,26,14,27,998.10
2022,12,26,14,28,998.14
2022,12,26,14,29,998.14
2022,12,26,14,30,998.17
2022,12,26,14,31,998.24
2022,12,26,14,32,998.24
2022,12,26,14,33,998.24
2022,12,26,14,34,998.24
2022,12,26,14,35,998.24
2022,12,26,14,36,998.21
2022,12,26,14,37,998.17
2022,12,26,14,38,998.21
2022,12,26,14,39,998.24
2022,12,26,14,40,998.24
2022,12,26,14,41,998.27
2022,12,26,14,42,998.27
2022,12,26,14,43,998.21
2022,12,26,14,44,998.21
2022,12,26,14,45,998.17
2022,12,26,14,46,998.10
2022,12,26,14,47,998.07
2022,12,26,14,48,998.10
2022,12,26,14,49,998.07
2022,12,26,14,50,998.04
2022,12,26,14,51,998.04
2022,12,26,14,52,998.04
2022,12,26,14,53,997.97
2022,12,26,14,54,997.94
2022,12,26,14,55,997.87
2022,12,26,14,56,997.80
2022,12,26,14,57,997.80
2022,12,26,14,58,997.80
2022,12,26,14,59,997.77
2022,12,26,15,00,997.73
2022,12,26,15,01,997.66
2022,12,26,15,02,997.63
2022,12,26,15,03,997.63
2022,12,26,15,04,997.63
2022,12,26,15,05,997.60
2022,12,26,15,06,997.63
2022,12,26,15,07,997.60
2022,12,26,15,08,997.53
2022,12,26,15,09,997.53
2022,12,26,15,10,997.50
2022,12,26,15,11,997.50
2022,12,26,15,12,997.50
2022,12,26,15,13,997.50
2022,12,26,15,14,997.39
2022,12,26,15,15,997.36
2022,12,26,15,16,997.36
2022,12,26,15,17,997.29
2022,12,26,15,18,997.26
2022,12,26,15,19,997.22
2022,12,26,15,20,997.19
2022,12,26,15,21,997.16
2022,12,26,15,22,997.16
2022,12,26,15,23,997.16
2022,12,26,15,24,997.11
2022,12,26,15,25,997.02
2022,12,26,15,26,996.99
2022,12,26,15,27,996.92
2022,12,26,15,28,996.89
2022,12,26,15,29,996.82
2022,12,26,15,30,996.78
2022,12,26,15,31,996.75
2022,12,26,15,32,996.72
2022,12,26,15,33,996.68
2022,12,26,15,34,996.61
2022,12,26,15,35,996.61
2022,12,26,15,36,996.55
2022,12,26,15,37,996.51
2022,12,26,15,38,996.51
2022,12,26,15,39,996.51
2022,12,26,15,40,996.45
2022,12,26,15,41,996.38
2022,12,26,15,42,996.38
2022,12,26,15,43,996.34
2022,12,26,15,44,996.31
2022,12,26,15,45,996.24
2022,12,26,15,46,996.21
2022,12,26,15,47,996.11
2022,12,26,15,48,996.07
2022,12,26,15,49,996.04
2022,12,26,15,50,996.01
2022,12,26,15,51,995.97
2022,12,26,15,52,995.94
2022,12,26,15,53,995.94
2022,12,26,15,54,995.87
2022,12,26,15,55,995.84
2022,12,26,15,56,995.80
2022,12,26,15,57,995.70
2022,12,26,15,58,995.67
2022,12,26,15,59,995.63
2022,12,26,16,00,995.63
2022,12,26,16,01,995.56
2022,12,26,16,02,995.53
2022,12,26,16,03,995.43
2022,12,26,16,04,995.40
2022,12,26,16,05,995.36
2022,12,26,16,06,995.29
2022,12,26,16,07,995.19
2022,12,26,16,08,995.16
2022,12,26,16,09,995.06
2022,12,26,16,10,994.99
2022,12,26,16,11,994.98
2022,12,26,16,12,994.89
2022,12,26,16,13,994.85
2022,12,26,16,14,994.82
2022,12,26,16,15,994.79
2022,12,26,16,16,994.72
2022,12,26,16,17,994.68
2022,12,26,16,18,994.62
2022,12,26,16,19,994.58
2022,12,26,16,20,994.62
2022,12,26,16,21,994.55
2022,12,26,16,22,994.55
2022,12,26,16,23,994.55
2022,12,26,16,24,994.48
2022,12,26,16,25,994.45
2022,12,26,16,26,994.45
2022,12,26,16,27,994.41
2022,12,26,16,28,994.41
2022,12,26,16,29,994.38
2022,12,26,16,30,994.38
2022,12,26,16,31,994.35
2022,12,26,16,32,994.35